Lexington Weather

Lexington, Massachusetts, USA

78°F
7/25/2024 12:37pm 
  • Lexington Conditions: Mostly cloudy
  • Temperature: 77.7°F / 25.4°CWarmer 1.1°F than last hour.
  • Dew Point: 72.1°FIncreased 0.3°Fsince last hour.
  • Relative Humidity: 83%Decreased 2.0% since last hour.
  • Wind: Wind from SW SW 2 mph, 10-min avg: 2 mph, gust: 7 mph
  • Barometer: 29.93 inFalling 0.02  inHg/hr Falling Slowly
  • Visibility: 10 miles
  • Rain Today: 0.00 in
  •   

Regional Weather Roundup
for Boston, MA

        
000
ASUS41 KBOX 200010
RWRBOX

REGIONAL WEATHER ROUNDUP
NATIONAL WEATHER SERVICE BOSTON/NORTON MA
800 PM EDT FRI JUL 19 2024

NOTE:  "FAIR" INDICATES FEW OR NO CLOUDS BELOW 12,000 FEET WITH NO 
SIGNIFICANT WEATHER AND/OR OBSTRUCTIONS TO VISIBILITY.

MAZALL-200100-
EASTERN MASSACHUSETTS
  
CITY           SKY/WX    TMP DP  RH WIND       PRES   REMARKS
BOSTON         FAIR      73  59  61 S8        30.07R                  
6HR MIN TEMP:  72; 6HR MAX TEMP:  78;                                

BEVERLY        FAIR      71  56  58 SE3       30.07R                  
LAWRENCE       FAIR      76  57  51 CALM      30.08R                  
BEDFORD        FAIR      74  59  59 S5        30.05R                  
NORWOOD        FAIR      74  63  68 SE5       30.07R                  
MARSHFIELD     FAIR      73  57  56 S5        30.08R                  
PLYMOUTH       FAIR      74  62  66 SE3       30.08S                  
TAUNTON        FAIR      75  65  70 E3        30.07R                  
NEW BEDFORD    FAIR      75  61  61 SW5       30.08R                  
$$

MAZALL-200100-
CAPE COD AND THE ISLANDS
  
CITY           SKY/WX    TMP DP  RH WIND       PRES   REMARKS
FALMOUTH       CLEAR     72  61  68 S7        30.11R                  
HYANNIS        FAIR      71  63  75 S6        30.09R                  
CHATHAM        FAIR      72  62  71 SW3       30.10R                  
PROVINCETOWN   FAIR      70  61  73 S5        30.09S                  
NANTUCKET      FAIR      66  62  87 S6        30.11R                  
MARTHAS VNYRD  FAIR      70  64  81 S6        30.10R                  
$$
 
MAZALL-200100-
CENTRAL AND WESTERN MASSACHUSETTS
  
CITY           SKY/WX    TMP DP  RH WIND       PRES   REMARKS
WORCESTER      FAIR      74  57  55 W5        30.11R                  
6HR MIN TEMP:  74; 6HR MAX TEMP:  80;                                

FITCHBURG      FAIR      77  60  55 SW3       30.08R                  
ORANGE           N/A     74  63  68 CALM      30.10R                  
SPRINGFIELD    PTCLDY    79  59  50 CALM      30.05R                  
WESTFIELD      FAIR      78  58  49 NW6       30.08R                  
NORTH ADAMS    FAIR      71  62  73 CALM      30.11R                  
PITTSFIELD     FAIR      73  53  49 CALM      30.12R                  
$$
 
RIZALL-200100-
RHODE ISLAND
  
CITY           SKY/WX    TMP DP  RH WIND       PRES   REMARKS
PROVIDENCE     FAIR      77  58  51 W7        30.08R                  
6HR MIN TEMP:  77; 6HR MAX TEMP:  82;                                

NEWPORT        FAIR      72  62  71 S5        30.09R                  
BLOCK ISLAND   FAIR      71  63  75 SW12        N/A                   
SMITHFIELD     FAIR      69  64  84 CALM      30.10R                  
WESTERLY       FAIR      74  62  66 SW5       30.10R                  
$$
 
CTZALL-200100-
CONNECTICUT
  
CITY           SKY/WX    TMP DP  RH WIND       PRES   REMARKS
BRADLEY INTL   FAIR      80  58  46 W8        30.08R                  
6HR MIN TEMP:  80; 6HR MAX TEMP:  86;                                

HARTFORD       FAIR      79  60  52 SE8       30.07R                  
PLAINVILLE     FAIR      77  59  53 CALM      30.09R                  
BRIDGEPORT     FAIR      78  60  53 VRB3      30.09R                  
DANBURY        FAIR      74  59  59 CALM      30.12R                  
GROTON         FAIR      74  62  66 W6        30.09R                  
NEW HAVEN      FAIR      79  64  60 W5        30.09R                  
CHESTER        FAIR      73  63  68 CALM      30.11R                  
MERIDEN        FAIR      77  58  51 W3        30.09R                  
WILLIMANTIC    FAIR      73  64  73 CALM      30.09R                  
OXFORD         FAIR      74  57  55 W3        30.13R                  
$$

MEZ002-015-021-024-NHZ003-005-008-011-012-014-VTZ005-008-200100-
NORTHERN NEW ENGLAND
  
CITY           SKY/WX    TMP DP  RH WIND       PRES   REMARKS
PORTLAND ME    MOCLDY    72  54  53 S5        30.06R                  
6HR MIN TEMP:  72; 6HR MAX TEMP:  80;                                

BANGOR ME      FAIR      72  58  61 CALM      30.02R                  
CONCORD NH     FAIR      78  55  44 NW5       30.06R                  
MANCHESTER NH  FAIR      81  52  36 W3        30.05R                  
NASHUA NH      FAIR      77  60  55 VRB3      30.07R                  
PORTSMOUTH NH  PTCLDY    73  57  56 S6        30.04S                  
JAFFREY NH     FAIR      74  60  61 CALM      30.11R                  
KEENE NH       FAIR      74  61  63 CALM      30.08R                  
BURLINGTON VT  FAIR      77  57  50 NE3       30.06S                  
MT. WASHINGTON PTCLDY    48  45  87 W26         N/A                   
$$

NYZ052-076-200100-
EASTERN NEW YORK
  
CITY           SKY/WX    TMP DP  RH WIND       PRES   REMARKS
ALBANY         FAIR      77  53  43 W5        30.09R                  
6HR MIN TEMP:  77; 6HR MAX TEMP:  83;                                

NEW YORK CITY  FAIR      79  58  48 S10       30.09R                  
6HR MIN TEMP:  79; 6HR MAX TEMP:  85;                                

$$
 
ANZALL-200100-
MARINE OBSERVATIONS
  
STATION/POSITION TIME  TEMP    WIND        PRES    VSBY  WAVE
                       AIR SEA DIR/SP/G                  HT/PER
                 (UTC) (F)     (DEG/KT/KT) (MB)    (MI)  (FT/S)
BOSTON BUOY      2350   67 63  170/  8/ 10 1018.5R         1/ 7
BUZZARDS BAY     2300   72     230/ 13/ 14 1018.7R
NANTUCKET SOUND  2350   73 76  200/ 10/ 12 1018.6R         1
MASS BAY-STELLWA 2204   69 67  180/  8/ 10 1018.1F  1 7/8  2/ 8
ISLE OF SHOALS   2300   72     170/ 17/ 18 1016.9R
S OF BLOCK IS    2356      74                N/A           3/ 8
$$

......................KEY.........................
  SKY/WX - SKY CONDITION/PRESENT WEATHER
  TMP    - TEMPERATURE IN FAHRENHEIT
  DWPT   - DEWPOINT IN FAHRENHEIT
  RH     - RELATIVE HUMIDITY IN PERCENT
  WIND   - DIRECTION AND SPEED IN MPH
  PRES   - MEAN SEA LEVEL PRESSURE IN INCHES OF HG
  WCI    - WIND CHILL INDEX
  VSB    - VISIBILITY IN MILES
  HX     - HEAT INDEX
  TC     - TEMPERATURE IN CELSIUS
  VRB    - VARIABLE WIND DIRECTION
  N/A    - NOT AVAILABLE
  
      

Other recent Regional Weather Roundups

Thu Jul 25, 12:10pm EDT

Thu Jul 25, 11:10am EDT

Thu Jul 25, 10:10am EDT

Thu Jul 25, 9:10am EDT

Thu Jul 25, 8:10am EDT

Thu Jul 25, 7:10am EDT

Thu Jul 25, 6:10am EDT

Thu Jul 25, 5:10am EDT

Thu Jul 25, 4:10am EDT

Thu Jul 25, 3:10am EDT

Thu Jul 25, 2:10am EDT

Thu Jul 25, 1:10am EDT

Thu Jul 25, 12:10am EDT

Wed Jul 24, 11:10pm EDT

Wed Jul 24, 10:10pm EDT

Wed Jul 24, 9:10pm EDT

Wed Jul 24, 8:10pm EDT

Wed Jul 24, 7:10pm EDT

Wed Jul 24, 6:10pm EDT

Wed Jul 24, 5:10pm EDT

Wed Jul 24, 4:10pm EDT

Wed Jul 24, 3:10pm EDT

Wed Jul 24, 2:10pm EDT

Wed Jul 24, 1:10pm EDT

Wed Jul 24, 12:10pm EDT

Wed Jul 24, 11:10am EDT

Wed Jul 24, 10:10am EDT

Wed Jul 24, 9:10am EDT

Wed Jul 24, 8:10am EDT

Wed Jul 24, 7:10am EDT

Wed Jul 24, 6:10am EDT

Wed Jul 24, 5:10am EDT

Wed Jul 24, 4:10am EDT

Wed Jul 24, 3:10am EDT

Wed Jul 24, 2:10am EDT

Wed Jul 24, 1:10am EDT

Wed Jul 24, 12:10am EDT

Tue Jul 23, 11:10pm EDT

Tue Jul 23, 10:10pm EDT

Tue Jul 23, 9:10pm EDT

Tue Jul 23, 8:10pm EDT

Tue Jul 23, 7:10pm EDT

Tue Jul 23, 6:10pm EDT

Tue Jul 23, 5:10pm EDT

Tue Jul 23, 4:10pm EDT

Tue Jul 23, 3:10pm EDT

Tue Jul 23, 2:10pm EDT

Tue Jul 23, 1:10pm EDT

Tue Jul 23, 12:10pm EDT

Tue Jul 23, 11:10am EDT

Tue Jul 23, 10:10am EDT

Tue Jul 23, 10:10am EDT

Tue Jul 23, 9:10am EDT

Tue Jul 23, 8:10am EDT

Tue Jul 23, 7:10am EDT

Tue Jul 23, 6:10am EDT

Tue Jul 23, 5:10am EDT

Tue Jul 23, 4:10am EDT

Tue Jul 23, 3:10am EDT

Tue Jul 23, 2:10am EDT

Tue Jul 23, 1:10am EDT

Tue Jul 23, 12:10am EDT

Mon Jul 22, 11:10pm EDT

Mon Jul 22, 10:10pm EDT

Mon Jul 22, 9:10pm EDT

Mon Jul 22, 8:10pm EDT

Mon Jul 22, 7:10pm EDT

Mon Jul 22, 6:10pm EDT

Mon Jul 22, 5:10pm EDT

Mon Jul 22, 4:10pm EDT

Mon Jul 22, 3:10pm EDT

Mon Jul 22, 2:10pm EDT

Mon Jul 22, 1:10pm EDT

Mon Jul 22, 12:10pm EDT

Mon Jul 22, 11:10am EDT

Mon Jul 22, 10:10am EDT

Mon Jul 22, 9:10am EDT

Mon Jul 22, 8:10am EDT

Mon Jul 22, 7:10am EDT

Mon Jul 22, 6:10am EDT

Mon Jul 22, 5:10am EDT

Mon Jul 22, 4:10am EDT

Mon Jul 22, 3:10am EDT

Mon Jul 22, 2:10am EDT

Mon Jul 22, 1:10am EDT

Mon Jul 22, 12:10am EDT

Sun Jul 21, 11:10pm EDT

Sun Jul 21, 10:10pm EDT

Sun Jul 21, 9:10pm EDT

Sun Jul 21, 8:10pm EDT

Sun Jul 21, 7:10pm EDT

Sun Jul 21, 6:10pm EDT

Sun Jul 21, 5:10pm EDT

Sun Jul 21, 4:10pm EDT

Sun Jul 21, 3:10pm EDT

Sun Jul 21, 2:10pm EDT

Sun Jul 21, 1:10pm EDT

Sun Jul 21, 12:10pm EDT

Sun Jul 21, 11:10am EDT

Sun Jul 21, 10:10am EDT

Sun Jul 21, 9:10am EDT

Sun Jul 21, 8:10am EDT

Sun Jul 21, 7:10am EDT

Sun Jul 21, 6:10am EDT

Sun Jul 21, 5:10am EDT

Sun Jul 21, 4:10am EDT

Sun Jul 21, 3:10am EDT

Sun Jul 21, 2:10am EDT

Sun Jul 21, 1:10am EDT

Sun Jul 21, 12:10am EDT

Sat Jul 20, 11:10pm EDT

Sat Jul 20, 10:10pm EDT

Sat Jul 20, 9:10pm EDT

Sat Jul 20, 8:10pm EDT

Sat Jul 20, 7:10pm EDT

Sat Jul 20, 6:10pm EDT

Sat Jul 20, 5:10pm EDT

Sat Jul 20, 4:10pm EDT

Sat Jul 20, 3:10pm EDT

Sat Jul 20, 2:10pm EDT

Sat Jul 20, 1:10pm EDT

Sat Jul 20, 12:10pm EDT

Sat Jul 20, 11:10am EDT

Sat Jul 20, 10:10am EDT

Sat Jul 20, 9:10am EDT

Sat Jul 20, 8:10am EDT

Sat Jul 20, 7:10am EDT

Sat Jul 20, 6:10am EDT

Sat Jul 20, 5:10am EDT

Sat Jul 20, 4:10am EDT

Sat Jul 20, 3:10am EDT

Sat Jul 20, 2:10am EDT

Sat Jul 20, 1:10am EDT

Sat Jul 20, 12:10am EDT

Fri Jul 19, 11:10pm EDT

Fri Jul 19, 10:10pm EDT

Fri Jul 19, 9:10pm EDT

Fri Jul 19, 7:10pm EDT

Fri Jul 19, 6:10pm EDT

Fri Jul 19, 5:10pm EDT

Fri Jul 19, 4:10pm EDT

Fri Jul 19, 3:10pm EDT

Fri Jul 19, 2:10pm EDT

Fri Jul 19, 1:10pm EDT

Fri Jul 19, 12:10pm EDT

Fri Jul 19, 11:10am EDT

Fri Jul 19, 10:10am EDT

Fri Jul 19, 9:10am EDT

Fri Jul 19, 8:10am EDT

Fri Jul 19, 7:10am EDT

Fri Jul 19, 6:10am EDT

Fri Jul 19, 5:10am EDT

Fri Jul 19, 4:10am EDT

Fri Jul 19, 3:10am EDT

Fri Jul 19, 2:10am EDT

Fri Jul 19, 1:10am EDT

Fri Jul 19, 12:10am EDT

Thu Jul 18, 11:10pm EDT

Thu Jul 18, 10:10pm EDT

Thu Jul 18, 9:10pm EDT

Thu Jul 18, 8:10pm EDT

Thu Jul 18, 7:10pm EDT

Thu Jul 18, 6:10pm EDT

Thu Jul 18, 5:10pm EDT

Thu Jul 18, 4:10pm EDT

Thu Jul 18, 3:10pm EDT

Thu Jul 18, 2:10pm EDT

Thu Jul 18, 1:10pm EDT